Location: Alvediston
(51.0078°N, 2.0364°W)
Time: 02:55:01
(UTC+00:00)

STARLINK-1043 - Pass Details

Date: 27 February 2020
Orbit: 549 x 550 km, 53.0° (Epoch: 09 April)

Event Time Altitude Azimuth Distance (km) Brightness Sun altitude
Rises 19:27:45 0° 237° (WSW) 2,714 7.9 -16.9°
Reaches altitude 10° 19:29:59 10° 234° (SW) 1,824 6.9 -17.3°
Maximum altitude 19:34:04 62° 154° (SSE) 622 3.6 -17.9°
Enters shadow 19:35:13 43° 94° (E) 785 3.9 -18.1°
